Everett, WA

2:46 PM PST on December 07, 2019 (GMT -0800)
Snohomish County

Weather History for KPAE - July, 2019

Change the Weather History Date:

Wednesday, July 10, 2019

  Actual Average Record
Temperature  
Mean Temperature 66 °F -  
Max Temperature 71 °F 71 °F 85 °F (1985)
Min Temperature 61 °F 53 °F 47 °F (1970)
Cooling Degree Days 1    
Growing Degree Days 16 (Base 50)    
Moisture  
Dew Point 60 °F    
Average Humidity 86    
Maximum Humidity 97    
Minimum Humidity 68    
Precipitation  
Precipitation 0.07 in - - ()
Sea Level Pressure  
Sea Level Pressure 30.04 in    
Wind  
Wind Speed 10 mph (South)    
Max Wind Speed 18 mph    
Max Gust Speed -    
Visibility 8 miles    
Events Rain    
Averages and records for this station are not official NWS values.
T = Trace of Precipitation, MM = Missing Value Source: NWS Daily Summary

Daily Weather History Graph

Daily Weather History Graph

Search for Another Location

Airport or City:

Astronomy

Jul. 10, 2019 Rise Set
Actual Time 5:20 AM PDT 9:07 PM PDT
Civil Twilight 4:40 AM PDT 9:47 PM PDT
Nautical Twilight 3:46 AM PDT 10:41 PM PDT
Astronomical Twilight 2:26 AM PDT 12:00 AM PDT
Moon 3:02 PM PDT (7/10) 1:24 AM PDT (7/10)
Length of Visible Light 17h 06m
Length of Day
15h 46m
Waxing Gibbous, 65% of the Moon is Illuminated
Jul 10
Waxing Gibbous
Jul 16
Full
Jul 24
Last Quarter
Jul 31
New
Aug 7
First Quarter

Hourly Weather History & Observations

Time (PDT) Temp. Dew Point Humidity Pressure Visibility Wind Dir Wind Speed Gust Speed Precip Events Conditions
12:09 AM 62.1 °F 60.1 °F 93% 30.00 in 6.0 mi South 9.2 mph - 0.02 in Rain Light Rain
12:17 AM 62.1 °F 60.1 °F 93% 30.00 in 6.0 mi SSE 9.2 mph - 0.02 in Rain Light Rain
12:42 AM 62.1 °F 60.1 °F 93% 30.01 in 10.0 mi South 13.8 mph - 0.02 in   Overcast
12:53 AM 62.1 °F 60.1 °F 93% 30.00 in 9.0 mi South 16.1 mph - 0.02 in   Overcast
1:53 AM 62.1 °F 60.1 °F 93% 29.99 in 10.0 mi South 11.5 mph - 0.00 in Rain Light Rain
2:44 AM 62.1 °F 60.1 °F 93% 30.01 in 10.0 mi South 10.4 mph - 0.00 in   Overcast
2:53 AM 62.1 °F 60.1 °F 93% 30.00 in 10.0 mi South 11.5 mph - 0.00 in   Overcast
3:04 AM 62.1 °F 60.1 °F 93% 30.01 in 10.0 mi South 11.5 mph - N/A   Overcast
3:48 AM 62.6 °F 60.8 °F 94% 30.01 in 10.0 mi South 9.2 mph - N/A   Overcast
3:53 AM 62.1 °F 60.1 °F 93% 30.00 in 10.0 mi South 8.1 mph - N/A   Overcast
4:53 AM 62.1 °F 60.1 °F 93% 30.01 in 10.0 mi SSE 9.2 mph - 0.01 in   Overcast
5:10 AM 62.1 °F 60.1 °F 93% 30.02 in 10.0 mi South 8.1 mph - N/A   Overcast
5:53 AM 61.0 °F 60.1 °F 97% 30.02 in 2.5 mi South 9.2 mph - 0.00 in Rain Light Rain
6:08 AM 61.0 °F 60.1 °F 97% 30.02 in 1.2 mi South 8.1 mph - 0.03 in Rain Rain
6:15 AM 62.1 °F 60.1 °F 93% 30.02 in 3.0 mi SSE 8.1 mph - 0.03 in Rain Light Rain
6:22 AM 62.1 °F 60.1 °F 93% 30.02 in 4.0 mi SSE 8.1 mph - 0.03 in Rain Light Rain
6:53 AM 62.1 °F 60.1 °F 93% 30.01 in 2.0 mi SSE 12.7 mph - 0.04 in   Overcast
7:20 AM 62.1 °F 60.1 °F 93% 30.02 in 2.0 mi SSE 10.4 mph - N/A   Overcast
7:49 AM 62.6 °F 60.8 °F 94% 30.03 in 10.0 mi South 10.4 mph - N/A   Overcast
7:53 AM 62.1 °F 60.1 °F 93% 30.03 in 10.0 mi South 8.1 mph - N/A   Overcast
8:53 AM 63.0 °F 61.0 °F 93% 30.04 in 3.0 mi SSE 9.2 mph - 0.00 in Rain Light Rain
9:53 AM 64.0 °F 62.1 °F 93% 30.04 in 5.0 mi SSE 9.2 mph - 0.00 in   Mostly Cloudy
10:53 AM 66.0 °F 62.1 °F 87% 30.04 in 10.0 mi South 12.7 mph - 0.00 in   Mostly Cloudy
11:53 AM 64.9 °F 60.1 °F 84% 30.05 in 8.0 mi South 17.3 mph - 0.00 in Rain Light Rain
12:53 PM 70.0 °F 60.1 °F 71% 30.04 in 10.0 mi South 15.0 mph - 0.00 in   Scattered Clouds
1:53 PM 70.0 °F 60.1 °F 71% 30.05 in 10.0 mi South 16.1 mph - N/A   Overcast
2:53 PM 69.1 °F 60.1 °F 73% 30.06 in 10.0 mi South 16.1 mph - 0.00 in   Overcast
3:53 PM 68.0 °F 61.0 °F 78% 30.06 in 10.0 mi South 18.4 mph - 0.00 in   Mostly Cloudy
4:02 PM 68.0 °F 60.1 °F 76% 30.07 in 10.0 mi South 12.7 mph - N/A   Mostly Cloudy
4:53 PM 68.0 °F 61.0 °F 78% 30.06 in 10.0 mi South 11.5 mph - N/A   Mostly Cloudy
5:00 PM 68.0 °F 60.1 °F 76% 30.06 in 10.0 mi SSE 13.8 mph - N/A   Mostly Cloudy
5:53 PM 68.0 °F 61.0 °F 78% 30.06 in 10.0 mi SSE 10.4 mph - N/A   Mostly Cloudy
5:58 PM 68.0 °F 60.1 °F 76% 30.06 in 10.0 mi South 8.1 mph - N/A   Overcast
6:53 PM 71.1 °F 61.0 °F 70% 30.06 in 10.0 mi SSE 16.1 mph - N/A   Overcast
7:53 PM 69.1 °F 60.1 °F 73% 30.06 in 10.0 mi SSE 11.5 mph - N/A   Mostly Cloudy
8:01 PM 70.0 °F 59.0 °F 68% 30.07 in 10.0 mi South 12.7 mph - N/A   Mostly Cloudy
8:53 PM 64.0 °F 59.0 °F 84% 30.08 in 10.0 mi SW 6.9 mph - N/A   Mostly Cloudy
9:00 PM 64.0 °F 59.0 °F 84% 30.09 in 10.0 mi SW 6.9 mph - N/A   Overcast
9:32 PM 64.0 °F 59.0 °F 84% 30.10 in 10.0 mi SW 8.1 mph - N/A   Scattered Clouds
9:42 PM 64.0 °F 59.0 °F 84% 30.10 in 10.0 mi SW 6.9 mph - N/A   Mostly Cloudy
9:53 PM 64.0 °F 59.0 °F 84% 30.10 in 10.0 mi SW 5.8 mph - N/A   Mostly Cloudy
10:29 PM 63.0 °F 59.0 °F 87% 30.10 in 10.0 mi SSW 3.5 mph - N/A   Mostly Cloudy
10:53 PM 63.0 °F 59.0 °F 87% 30.10 in 10.0 mi Calm Calm - N/A   Mostly Cloudy
11:19 PM 63.0 °F 59.0 °F 87% 30.11 in 10.0 mi Calm Calm - N/A   Mostly Cloudy
11:53 PM 62.1 °F 59.0 °F 90% 30.11 in 10.0 mi Calm Calm - N/A   Overcast